Theta_e
300 299 298 299 300 301 301 301 313 303 302 311 309 313 310 309 310 309 310 311 312 313 312 312 313 314 312 309 310 313 312 314 317 316 310 310 311 313 311 318 315 311 314 311
301 298 298 298 300 301 301 304 305 303 305 311 311 311 311 311 311 310 311 311 311 310 311 313 312 311 309 309 311 312 311 314 316 315 312 311 313 312 309 309 312 315 315 311
300 298 298 298 299 300 300 304 310 308 308 307 309 311 314 313 310 311 310 310 310 311 312 311 312 312 311 310 311 310 310 311 315 315 313 313 315 312 310 315 317 313 314 310
300 298 298 297 298 299 300 304 305 304 309 311 308 311 313 313 314 312 311 312 312 311 312 312 312 311 311 311 310 310 311 314 311 310 311 311 312 313 310 311 313 318 312 311
300 298 297 297 297 299 302 304 305 304 307 305 311 311 313 314 314 313 313 313 312 312 312 312 312 311 311 312 311 311 310 315 311 311 310 311 312 311 312 311 311 310 311 312
299 297 297 297 297 297 301 301 302 304 306 308 311 309 310 313 312 313 312 312 312 312 310 309 309 309 309 310 311 311 311 312 313 315 310 312 315 313 312 311 310 311 314 313
299 299 297 297 296 296 298 299 300 304 309 309 307 308 309 311 313 314 312 312 312 309 308 308 310 310 310 310 309 309 311 312 312 314 312 317 310 309 310 311 311 310 311 311
299 298 297 296 296 296 296 299 300 303 305 305 307 307 308 310 310 312 313 312 310 309 310 312 313 313 312 313 311 310 310 312 314 314 314 312 316 311 311 314 319 312 311 311
298 299 296 297 297 296 295 298 298 301 304 306 303 306 306 311 312 311 311 309 308 309 312 313 313 313 311 313 313 311 310 310 312 313 314 314 313 314 312 312 323 315 310 312
298 299 297 295 296 296 294 295 296 299 303 303 303 306 308 308 309 311 309 311 311 308 313 314 315 313 312 312 312 313 313 313 313 313 313 311 308 308 309 320 322 315 313 313
298 298 298 296 296 297 295 294 295 296 299 299 301 302 305 308 308 311 310 310 310 310 313 313 313 313 313 313 312 312 313 313 313 313 312 313 307 312 317 317 313 311 311 312
297 297 298 298 296 297 296 294 294 294 295 297 297 298 299 301 304 306 309 310 311 310 312 311 312 312 311 312 313 310 314 311 311 311 312 308 308 312 311 310 310 310 311 310
297 297 298 298 296 296 296 296 295 294 295 296 297 299 298 298 299 301 308 309 310 311 311 312 313 311 311 312 312 312 311 309 311 312 312 310 310 310 309 309 310 308 308 307
297 297 297 297 296 296 297 297 295 294 294 296 299 300 301 303 305 300 303 306 308 307 310 313 313 311 309 311 310 311 311 309 312 312 311 311 311 311 311 310 309 307 306 306
297 297 297 296 297 297 296 296 296 295 294 297 298 297 299 300 305 302 302 303 307 310 313 313 313 312 310 309 309 311 309 310 311 311 310 312 312 310 308 309 310 308 307 306
297 297 297 296 297 296 295 296 295 295 294 294 297 300 303 305 305 304 303 304 307 310 312 313 313 310 311 312 312 309 307 308 308 311 309 309 309 308 305 306 305 304 304 304
297 296 296 297 297 296 296 295 296 295 294 295 297 301 304 306 307 308 308 306 308 310 312 312 312 312 312 311 311 309 308 307 307 305 306 309 308 309 304 303 302 301 302 303
295 297 297 297 296 296 297 296 295 294 294 295 298 301 306 307 310 311 308 310 310 310 311 311 312 311 311 312 310 308 305 304 304 303 302 303 303 303 304 302 299 300 302 303
296 297 295 296 297 296 296 296 296 295 296 299 301 306 310 306 310 310 310 309 311 309 311 310 311 311 313 311 310 309 303 303 303 300 300 300 302 303 302 303 301 300 300 300
296 294 297 297 295 296 297 297 297 296 297 297 300 303 306 306 309 310 311 310 310 310 308 309 311 312 308 301 299 299 298 297 296 300 302 301 301 301 301 301 301 302 301 299
293 296 297 296 296 297 298 300 300 300 301 299 301 305 306 306 306 309 308 308 307 311 310 312 312 310 305 298 297 295 294 294 295 296 297 298 298 299 299 300 300 300 301 300
293 294 294 296 298 300 301 303 303 303 305 305 306 307 306 307 307 309 308 308 305 310 307 309 309 306 297 296 295 294 294 296 297 297 297 297 297 297 298 299 300 300 300 301
294 295 297 298 299 302 302 305 307 306 305 303 303 303 307 306 308 308 306 308 310 304 309 309 307 300 296 294 294 294 295 295 295 295 294 294 295 296 296 293 293 294 298 299
297 298 299 299 301 302 303 304 303 302 301 303 302 306 307 306 306 306 309 309 305 311 310 310 303 298 295 294 294 295 294 293 293 293 293 293 293 293 294 293 292 292 293 292
298 298 298 299 299 299 298 297 299 299 299 301 303 303 304 305 306 305 306 310 310 309 309 306 299 294 293 293 293 293 292 292 292 292 292 291 291 292 292 291 291 291 290 290
295 295 297 296 297 299 298 298 299 298 300 299 299 305 306 306 305 308 307 308 310 309 304 298 294 293 292 292 292 292 291 290 290 290 290 290 290 290 290 290 290 289 290 290
292 293 293 295 296 296 297 299 299 296 299 302 301 305 305 303 306 305 305 307 306 302 296 295 294 293 291 290 290 289 288 288 288 288 289 289 289 289 289 289 287 289 289 287
Wind_Speed
25 33 33 31 33 36 11 4 2 9 9 2 1 2 3 2 2 4 4 2 6 4 3 5 4 4 1 1 1 3 1 5 4 2 3 2 1 2 3 3 4 1 1 3
23 31 33 32 32 29 8 2 2 5 4 3 4 2 1 2 6 5 4 4 4 3 3 4 4 3 3 1 1 3 5 4 5 2 2 2 5 4 3 4 2 4 2 4
23 28 31 32 33 27 5 1 2 3 3 2 3 5 4 3 1 5 3 3 2 3 5 6 4 5 3 4 4 7 3 3 0 3 3 4 4 8 8 3 3 4 4 2
20 26 29 31 34 21 4 3 3 2 4 5 7 6 5 4 5 5 9 4 7 2 2 3 4 3 4 3 3 2 1 3 2 3 2 2 3 5 10 6 3 4 2 4
18 23 25 29 32 19 7 3 2 3 3 6 5 9 8 8 4 6 4 5 7 4 3 3 5 5 3 3 1 2 2 3 2 2 2 5 5 7 10 12 11 11 8 14
15 19 22 24 27 22 6 6 4 2 3 3 2 3 4 6 5 4 5 2 4 8 4 1 3 1 4 4 4 2 1 4 1 0 2 3 5 9 12 8 8 11 9 7
15 15 18 20 21 22 5 4 3 3 2 2 3 5 4 7 6 2 4 3 3 4 2 2 9 12 10 8 7 1 5 4 1 0 2 2 3 2 3 11 5 12 8 10
12 12 14 17 17 18 11 7 4 2 2 4 1 8 5 5 4 4 3 5 3 1 1 2 3 2 2 4 6 5 1 2 2 2 2 4 2 3 4 4 2 11 13 13
10 11 13 13 13 15 14 7 9 2 3 2 3 3 5 3 3 1 1 2 2 1 1 1 2 2 1 3 2 4 4 5 1 1 2 2 2 2 2 2 2 2 8 7
9 9 9 13 10 11 14 5 12 4 3 3 3 4 2 2 2 3 2 3 0 1 1 2 2 2 0 3 4 4 3 1 4 3 3 3 2 2 1 3 5 1 3 6
8 8 9 10 9 9 9 6 5 5 3 8 5 3 4 2 2 2 3 2 3 1 3 2 2 2 2 2 1 3 6 5 3 3 3 4 4 3 3 3 1 4 5 4
8 8 9 10 7 7 6 3 6 6 6 6 7 14 19 15 9 2 1 3 1 0 1 2 2 2 2 2 2 2 4 3 1 5 2 2 2 1 1 3 3 2 3 2
9 8 10 10 9 8 8 9 8 7 4 7 7 9 16 21 28 20 3 2 2 2 1 1 0 2 1 3 4 3 4 4 3 2 3 8 7 6 4 1 1 2 2 3
11 8 10 11 10 9 10 10 8 4 5 4 5 6 9 7 10 23 25 2 1 2 2 1 1 2 2 1 1 3 0 6 5 5 9 9 4 5 1 4 4 2 2 4
12 10 11 12 12 11 11 15 17 16 7 3 6 21 13 13 13 17 19 12 3 2 2 2 2 2 3 1 0 4 5 7 5 5 4 3 3 1 4 6 8 6 3 4
12 10 13 13 12 9 4 2 2 8 16 3 4 6 4 6 12 14 14 10 4 2 3 2 2 1 3 3 3 4 7 5 5 1 1 4 8 7 3 5 5 4 5 5
11 11 14 14 12 8 5 2 1 1 15 2 4 4 4 8 6 4 3 6 3 3 2 3 3 3 4 3 7 6 7 7 5 1 2 5 2 1 8 7 6 4 3 3
10 13 14 15 12 9 10 18 6 9 4 3 3 4 3 8 4 3 3 4 3 4 1 1 3 2 3 5 8 4 5 4 3 4 2 5 8 8 7 5 3 4 5 4
10 12 14 6 4 4 3 5 17 13 4 3 3 3 1 1 1 2 2 2 2 1 3 3 3 5 6 5 6 6 3 2 4 3 5 7 7 5 7 6 5 7 6 5
9 6 4 3 4 8 5 5 2 2 3 3 4 3 2 2 1 2 4 2 2 3 4 2 3 3 3 3 4 3 1 1 1 3 4 3 8 7 8 10 9 9 8 4
2 4 2 2 5 4 3 3 4 4 4 4 4 4 2 1 2 2 1 2 2 2 2 3 2 3 3 3 3 2 1 2 3 5 8 8 9 10 11 12 12 12 13 9
4 2 2 2 3 3 4 4 3 5 3 2 2 2 3 2 2 2 2 2 2 3 2 2 3 2 4 2 2 1 2 2 4 5 6 8 9 11 10 9 10 15 15 14
4 2 2 3 3 5 5 4 3 3 1 1 1 2 0 1 1 2 2 3 3 2 3 3 2 3 2 2 1 1 3 4 4 5 7 8 9 10 7 8 10 12 12 10
2 4 5 4 4 4 3 1 0 1 2 2 3 1 0 0 1 1 2 1 2 2 2 3 2 4 4 2 1 1 3 5 5 6 7 7 8 8 9 8 9 8 5 2
2 3 4 4 2 2 1 2 2 0 2 2 2 1 1 1 1 1 1 3 3 3 2 1 4 6 5 3 2 2 2 4 5 6 7 9 9 7 8 10 9 7 4 0
1 2 2 1 2 2 1 1 1 2 2 1 1 1 2 3 1 3 4 2 3 1 2 3 7 7 5 4 2 0 2 3 5 6 6 7 9 9 8 9 10 9 6 3
3 3 3 2 2 3 1 1 1 3 2 1 2 3 2 2 2 3 3 3 2 1 2 5 6 7 6 5 3 1 2 4 5 6 6 8 7 6 7 7 13 10 6 4
Wind_Direction
351 345 346 348 350 346 1 345 44 346 353 59 6 30 340 286 302 188 270 16 62 74 82 70 90 126 64 91 254 97 45 103 135 111 21 318 285 203 196 240 183 29 10 94
353 349 346 347 351 353 330 17 308 341 344 56 19 41 76 318 18 7 17 47 43 38 68 98 69 82 33 46 267 152 158 116 117 154 192 188 221 194 149 99 48 201 206 118
354 349 346 347 351 353 358 338 33 342 29 52 2 356 357 38 49 41 46 66 90 89 56 44 125 117 37 358 72 56 92 99 274 164 70 127 191 195 186 156 186 161 223 106
356 354 349 350 353 358 10 15 66 31 354 353 342 350 354 44 17 10 22 63 37 43 113 98 109 113 145 77 10 69 51 105 93 92 105 171 211 204 195 205 187 218 88 197
357 357 354 353 355 4 51 31 8 349 309 321 352 8 11 27 25 6 27 71 37 45 85 14 172 149 185 175 114 67 30 118 133 128 162 215 227 211 210 221 228 248 257 284
353 357 355 356 0 11 39 5 341 299 350 352 16 2 324 338 321 72 53 46 81 62 31 352 66 48 93 120 155 123 85 139 163 74 319 285 253 232 203 191 210 217 221 234
352 353 354 353 2 8 358 7 304 338 3 352 35 342 319 350 7 22 10 17 101 127 192 126 103 83 84 84 60 63 137 118 82 24 260 238 62 338 217 213 221 215 246 257
343 354 352 349 356 0 1 6 0 347 309 313 313 351 344 320 348 33 19 35 27 296 239 133 132 116 145 65 43 35 38 151 113 280 252 324 164 150 156 179 61 217 232 262
335 340 347 339 350 354 359 3 360 317 317 219 317 337 326 333 340 329 30 34 341 353 52 167 181 196 134 153 117 34 71 75 169 148 269 224 74 67 187 243 130 99 205 262
327 333 327 338 340 347 357 353 9 294 280 270 236 237 284 282 286 286 305 344 238 334 184 195 194 164 168 176 194 167 161 157 224 228 277 273 222 258 191 261 128 46 266 281
309 307 311 323 323 333 343 330 343 5 296 278 256 256 246 237 211 285 14 249 188 153 196 219 173 203 160 209 123 180 190 181 196 197 235 265 157 129 220 43 78 306 296 281
292 303 292 284 301 313 315 289 318 324 247 271 274 264 258 254 268 296 277 310 268 268 140 201 162 177 179 201 218 177 215 231 219 220 234 48 188 299 311 292 296 304 282 295
280 290 284 287 293 286 283 285 295 305 269 274 251 247 260 248 240 228 240 212 304 223 317 208 164 278 211 210 224 209 210 190 237 259 199 236 259 286 282 221 250 215 250 277
268 277 275 281 283 272 280 257 270 248 274 279 284 295 260 257 250 208 216 255 322 291 241 234 235 243 206 231 340 250 340 165 210 247 270 272 257 219 35 336 244 199 226 237
262 271 273 278 278 281 285 278 267 244 218 294 299 305 272 235 216 200 209 221 239 263 225 215 216 127 180 119 281 244 187 215 217 253 266 281 232 229 341 315 306 328 264 224
256 267 276 272 280 291 313 297 11 236 207 263 281 306 260 183 191 186 188 194 199 220 241 208 209 204 213 231 227 243 206 214 223 242 52 273 287 306 49 330 320 306 254 229
253 263 272 274 274 263 212 241 338 134 182 255 275 261 233 184 172 175 166 178 200 213 222 234 205 209 198 236 241 252 207 206 189 213 275 249 207 300 319 307 293 287 265 246
257 266 274 278 278 253 239 232 204 150 206 259 268 269 266 183 164 190 158 161 177 196 206 232 214 157 204 250 241 238 147 169 230 177 338 298 301 298 303 288 285 266 255 243
249 271 282 264 214 198 228 204 201 196 229 285 262 279 297 310 143 152 142 159 154 125 213 214 222 194 219 231 231 203 183 181 158 270 292 290 274 299 306 308 285 264 264 246
260 274 213 226 214 151 134 124 133 173 207 225 252 261 271 298 204 129 166 146 173 188 216 173 218 247 236 120 99 91 93 29 360 298 287 287 293 296 298 291 287 278 270 240
216 216 230 158 171 188 203 206 195 181 232 219 231 241 236 155 202 127 351 135 122 212 171 225 239 247 152 133 110 63 7 274 261 255 274 274 274 282 287 286 281 275 270 247
218 208 228 191 201 211 225 203 196 203 241 213 243 246 206 232 235 128 157 151 181 227 128 214 246 104 114 120 94 22 337 325 310 304 298 296 289 287 282 277 278 277 271 262
197 213 221 196 189 236 231 207 169 221 233 326 342 297 232 158 302 86 130 195 214 101 196 229 242 133 113 72 45 55 23 5 351 340 329 316 311 314 308 304 303 293 272 254
212 197 206 213 202 233 218 277 233 9 300 307 272 208 194 2 104 177 217 173 151 230 236 235 157 160 146 126 79 80 15 7 355 348 338 333 335 333 338 340 337 331 316 243
226 207 223 227 331 263 299 291 300 282 291 326 296 104 12 19 269 189 273 203 227 235 247 215 152 152 148 142 118 58 17 0 0 351 347 343 344 349 350 355 352 356 357 353
253 241 251 218 278 261 288 290 307 4 346 330 292 198 180 218 218 219 210 249 229 197 203 158 148 155 153 149 151 77 350 351 347 348 348 348 356 353 353 8 11 8 360 334
214 237 245 276 289 272 284 291 36 345 327 302 307 221 190 115 207 225 212 222 219 189 171 155 158 157 153 146 142 81 359 349 357 352 357 358 354 4 14 11 355 357 5 358